Regional Weather Roundup
Issued by NWS

Home | Current Version | Previous Version | Text Only | Print | Product List | Glossary Off
Versions: 1 2 3 4 5 6 7 8 9 10 11 12 13 14 15 16 17 18 19 20 21 22 23 24 25 26 27 28 29 30 31 32 33 34 35 36 37 38 39 40 41 42 43 44 45 46 47 48 49 50

000
ASUS43 KIND 070259
RWRIN

WEATHER ROUNDUP FOR INDIANA
NATIONAL WEATHER SERVICE INDIANAPOLIS IN
1000 PM EST TUE DEC 06 2016

NOTE: "FAIR" INDICATES FEW OR NO CLOUDS BELOW 12,000 FEET WITH NO
SIGNIFICANT WEATHER AND/OR OBSTRUCTIONS TO VISIBILITY.

* - STATION DOES NOT REPORT WEATHER SUCH AS PRECIPITATION OR FOG.

+ - STATION NOT QUALITY CONTROLLED BY THE NATIONAL WEATHER SERVICE.
    USE DATA WITH CAUTION...ESPECIALLY DEWPOINT AND RELATIVE
    HUMIDITY OBSERVATIONS.

INZ001>003-010>013-019-020-070400-
NORTHWEST INDIANA

CITY           SKY/WX    TMP DP  RH WIND       PRES   REMARKS
GARY /AIRPORT/ CLEAR     32  25  74 W24       29.96R WCI  19

$$

LMZ046-743>745-070400-
SOUTHERN LAKE MICHIGAN

STATION/POSITION TIME  TEMP    WIND        PRES    WAVE
                       AIR SEA DIR/SP/G            HT
                 (UTC) (F)     (DEG/KT/KT) (MB)    (FT)
BURNS HARBOR     0219   34     260/ 28     1013.5R

$$

INZ004-005-014>016-021>024-070400-
NORTH CENTRAL INDIANA

CITY           SKY/WX    TMP DP  RH WIND       PRES   REMARKS
GOSHEN         MOCLDY    32  26  78 W15       29.91R WCI  22
SOUTH BEND     PTCLDY    30  24  78 W15       29.91R WCI  19

$$

INZ006>009-017-018-025>027-070400-
NORTHEAST INDIANA

CITY           SKY/WX    TMP DP  RH WIND       PRES   REMARKS
ANGOLA *+      CLOUDY    34  32  93 W12       29.85R WCI  25
FORT WAYNE     MOCLDY    33  28  81 W14       29.91R WCI  23
KENDALLVILLE + CLOUDY    33  30  89 W16G22    29.88R WCI  23

$$

INZ028-029-035-036-043>045-051>053-070400-
WEST CENTRAL INDIANA

CITY           SKY/WX    TMP DP  RH WIND       PRES   REMARKS
CRAWFORDSVL +  PTCLDY    31  31  99 W10       30.00R WCI  22
LAFAYETTE      CLEAR     31  29  92 W8        29.99R WCI  23
TERRE HAUTE    CLEAR     34  28  79 W5        30.03R WCI  30

$$

INZ030>032-037>040-046>048-054>057-064-065-070400-
CENTRAL INDIANA

CITY           SKY/WX    TMP DP  RH WIND       PRES   REMARKS
COLUMBUS       PTCLDY    34  34 100 W9        30.01R WCI  26
GREENWOOD *+   PTCLDY    35  32  89 W3        29.99R
INDIANAPOLIS   PTCLDY    32  29  88 W8        29.99R WCI  25
-EAGLE CREEK   CLEAR     35  30  82 W9        29.97R WCI  28
KOKOMO +       PTCLDY    32  29  88 W15       29.96R WCI  22
SHELBYVILLE    PTCLDY    35  29  78 W8        29.98R WCI  29

$$

INZ033-034-041-042-049-050-058-059-070400-
EAST CENTRAL INDIANA

CITY           SKY/WX    TMP DP  RH WIND       PRES   REMARKS
MUNCIE         MOCLDY    34  29  82 W10       29.95R WCI  26

$$

INZ060-061-067>069-081>083-085>088-070400-
SOUTHWEST INDIANA

CITY           SKY/WX    TMP DP  RH WIND       PRES   REMARKS
EVANSVILLE     PTCLDY    38  33  82 NW3       30.07R
HUNTINGBURG *+ PTCLDY    37  34  87 NW3       30.05R

$$

INZ062-063-066-070>080-084-089>092-070400-
SOUTH CENTRAL AND SOUTHEAST INDIANA

CITY           SKY/WX    TMP DP  RH WIND       PRES   REMARKS
BLOOMINGTON    MOCLDY    36  30  79 NW9G18    30.02R
MADISON *+     MOCLDY    37  32  81 NW7       30.03R
SEYMOUR +      MOCLDY    36  32  87 W8        30.02R

$$




USA.gov is the U.S. government's official web portal to all federal, state and local government web resources and services.